Year,Month,Day,Hour,Minute,Value (Times are PST for temperature in C)
2015,02,22,00,00,3.80
2015,02,22,00,01,3.80
2015,02,22,00,02,3.80
2015,02,22,00,03,3.80
2015,02,22,00,04,3.80
2015,02,22,00,05,3.80
2015,02,22,00,06,3.80
2015,02,22,00,07,3.80
2015,02,22,00,08,3.70
2015,02,22,00,09,3.70
2015,02,22,00,10,3.70
2015,02,22,00,11,3.70
2015,02,22,00,12,3.70
2015,02,22,00,13,3.70
2015,02,22,00,14,3.70
2015,02,22,00,15,3.60
2015,02,22,00,16,3.60
2015,02,22,00,17,3.60
2015,02,22,00,18,3.60
2015,02,22,00,19,3.60
2015,02,22,00,20,3.60
2015,02,22,00,21,3.50
2015,02,22,00,22,3.50
2015,02,22,00,23,3.50
2015,02,22,00,24,3.50
2015,02,22,00,25,3.50
2015,02,22,00,26,3.40
2015,02,22,00,27,3.40
2015,02,22,00,28,3.40
2015,02,22,00,29,3.40
2015,02,22,00,30,3.40
2015,02,22,00,31,3.30
2015,02,22,00,32,3.30
2015,02,22,00,33,3.20
2015,02,22,00,34,3.20
2015,02,22,00,35,3.20
2015,02,22,00,36,3.20
2015,02,22,00,37,3.20
2015,02,22,00,38,3.20
2015,02,22,00,39,3.20
2015,02,22,00,40,3.20
2015,02,22,00,41,3.20
2015,02,22,00,42,3.20
2015,02,22,00,43,3.20
2015,02,22,00,44,3.20
2015,02,22,00,45,3.20
2015,02,22,00,46,3.20
2015,02,22,00,47,3.20
2015,02,22,00,48,3.20
2015,02,22,00,49,3.20
2015,02,22,00,50,3.30
2015,02,22,00,51,3.30
2015,02,22,00,52,3.30
2015,02,22,00,53,3.30
2015,02,22,00,54,3.30
2015,02,22,00,55,3.30
2015,02,22,00,56,3.20
2015,02,22,00,57,3.20
2015,02,22,00,58,3.20
2015,02,22,00,59,3.20
2015,02,22,01,00,3.20
2015,02,22,01,01,3.20
2015,02,22,01,02,3.20
2015,02,22,01,03,3.20
2015,02,22,01,04,3.20
2015,02,22,01,05,3.20
2015,02,22,01,06,3.20
2015,02,22,01,07,3.20
2015,02,22,01,08,3.20
2015,02,22,01,09,3.20
2015,02,22,01,10,3.10
2015,02,22,01,11,3.10
2015,02,22,01,12,3.10
2015,02,22,01,13,3.10
2015,02,22,01,14,3.10
2015,02,22,01,15,3.10
2015,02,22,01,16,3.20
2015,02,22,01,17,3.10
2015,02,22,01,18,3.10
2015,02,22,01,19,3.10
2015,02,22,01,20,3.10
2015,02,22,01,21,3.10
2015,02,22,01,22,3.10
2015,02,22,01,23,3.10
2015,02,22,01,24,3.10
2015,02,22,01,25,3.00
2015,02,22,01,26,3.00
2015,02,22,01,27,3.10
2015,02,22,01,28,3.10
2015,02,22,01,29,3.10
2015,02,22,01,30,3.10
2015,02,22,01,31,3.10
2015,02,22,01,32,3.10
2015,02,22,01,33,3.10
2015,02,22,01,34,3.10
2015,02,22,01,35,3.10
2015,02,22,01,36,3.10
2015,02,22,01,37,3.10
2015,02,22,01,38,3.10
2015,02,22,01,39,3.10
2015,02,22,01,40,3.10
2015,02,22,01,41,3.10
2015,02,22,01,42,3.10
2015,02,22,01,43,3.10
2015,02,22,01,44,3.10
2015,02,22,01,45,3.10
2015,02,22,01,46,3.00
2015,02,22,01,47,3.00
2015,02,22,01,48,3.00
2015,02,22,01,49,3.00
2015,02,22,01,50,3.00
2015,02,22,01,51,3.00
2015,02,22,01,52,3.00
2015,02,22,01,53,2.90
2015,02,22,01,54,2.90
2015,02,22,01,55,3.00
2015,02,22,01,56,3.00
2015,02,22,01,57,3.00
2015,02,22,01,58,3.00
2015,02,22,01,59,2.90
2015,02,22,02,00,2.90
2015,02,22,02,01,2.90
2015,02,22,02,02,2.90
2015,02,22,02,03,2.90
2015,02,22,02,04,2.90
2015,02,22,02,05,2.80
2015,02,22,02,06,2.80
2015,02,22,02,07,2.80
2015,02,22,02,08,2.80
2015,02,22,02,09,2.80
2015,02,22,02,10,2.80
2015,02,22,02,11,2.80
2015,02,22,02,12,2.80
2015,02,22,02,13,2.80
2015,02,22,02,14,2.80
2015,02,22,02,15,2.80
2015,02,22,02,16,2.80
2015,02,22,02,17,2.80
2015,02,22,02,18,2.70
2015,02,22,02,19,2.70
2015,02,22,02,20,2.70
2015,02,22,02,21,2.70
2015,02,22,02,22,2.70
2015,02,22,02,23,2.70
2015,02,22,02,24,2.70
2015,02,22,02,25,2.70
2015,02,22,02,26,2.70
2015,02,22,02,27,2.70
2015,02,22,02,28,2.60
2015,02,22,02,29,2.60
2015,02,22,02,30,2.60
2015,02,22,02,31,2.60
2015,02,22,02,32,2.60
2015,02,22,02,33,2.60
2015,02,22,02,34,2.60
2015,02,22,02,35,2.60
2015,02,22,02,36,2.50
2015,02,22,02,37,2.50
2015,02,22,02,38,2.50
2015,02,22,02,39,2.50
2015,02,22,02,40,2.60
2015,02,22,02,41,2.50
2015,02,22,02,42,2.60
2015,02,22,02,43,2.60
2015,02,22,02,44,2.50
2015,02,22,02,45,2.50
2015,02,22,02,46,2.50
2015,02,22,02,47,2.50
2015,02,22,02,48,2.40
2015,02,22,02,49,2.40
2015,02,22,02,50,2.40
2015,02,22,02,51,2.40
2015,02,22,02,52,2.40
2015,02,22,02,53,2.40
2015,02,22,02,54,2.30
2015,02,22,02,55,2.30
2015,02,22,02,56,2.30
2015,02,22,02,57,2.30
2015,02,22,02,58,2.30
2015,02,22,02,59,2.30
2015,02,22,03,00,2.30
2015,02,22,03,01,2.30
2015,02,22,03,02,2.30
2015,02,22,03,03,2.30
2015,02,22,03,04,2.30
2015,02,22,03,05,2.30
2015,02,22,03,06,2.20
2015,02,22,03,07,2.20
2015,02,22,03,08,2.20
2015,02,22,03,09,2.20
2015,02,22,03,10,2.20
2015,02,22,03,11,2.20
2015,02,22,03,12,2.20
2015,02,22,03,13,2.20
2015,02,22,03,14,2.20
2015,02,22,03,15,2.20
2015,02,22,03,16,2.30
2015,02,22,03,17,2.20
2015,02,22,03,18,2.20
2015,02,22,03,19,2.20
2015,02,22,03,20,2.20
2015,02,22,03,21,2.20
2015,02,22,03,22,2.20
2015,02,22,03,23,2.20
2015,02,22,03,24,2.20
2015,02,22,03,25,2.10
2015,02,22,03,26,2.10
2015,02,22,03,27,2.10
2015,02,22,03,28,2.10
2015,02,22,03,29,2.10
2015,02,22,03,30,2.10
2015,02,22,03,31,2.10
2015,02,22,03,32,2.10
2015,02,22,03,33,2.10
2015,02,22,03,34,2.10
2015,02,22,03,35,2.10
2015,02,22,03,36,2.10
2015,02,22,03,37,2.10
2015,02,22,03,38,2.10
2015,02,22,03,39,2.10
2015,02,22,03,40,2.10
2015,02,22,03,41,2.10
2015,02,22,03,42,2.10
2015,02,22,03,43,2.10
2015,02,22,03,44,2.00
2015,02,22,03,45,2.00
2015,02,22,03,46,2.00
2015,02,22,03,47,2.10
2015,02,22,03,48,2.10
2015,02,22,03,49,2.10
2015,02,22,03,50,2.10
2015,02,22,03,51,2.10
2015,02,22,03,52,2.20
2015,02,22,03,53,2.20
2015,02,22,03,54,2.20
2015,02,22,03,55,2.20
2015,02,22,03,56,2.20
2015,02,22,03,57,2.20
2015,02,22,03,58,2.20
2015,02,22,03,59,2.20
2015,02,22,04,00,2.20
2015,02,22,04,01,2.20
2015,02,22,04,02,2.20
2015,02,22,04,03,2.20
2015,02,22,04,04,2.20
2015,02,22,04,05,2.20
2015,02,22,04,06,2.10
2015,02,22,04,07,2.10
2015,02,22,04,08,2.10
2015,02,22,04,09,2.10
2015,02,22,04,10,2.10
2015,02,22,04,11,2.10
2015,02,22,04,12,2.00
2015,02,22,04,13,2.00
2015,02,22,04,14,2.00
2015,02,22,04,15,2.00
2015,02,22,04,16,1.90
2015,02,22,04,17,1.90
2015,02,22,04,18,1.90
2015,02,22,04,19,1.90
2015,02,22,04,20,1.90
2015,02,22,04,21,1.90
2015,02,22,04,22,1.90
2015,02,22,04,23,1.90
2015,02,22,04,24,1.90
2015,02,22,04,25,1.90
2015,02,22,04,26,1.80
2015,02,22,04,27,1.80
2015,02,22,04,28,1.80
2015,02,22,04,29,1.80
2015,02,22,04,30,1.80
2015,02,22,04,31,1.80
2015,02,22,04,32,1.80
2015,02,22,04,33,1.80
2015,02,22,04,34,1.80
2015,02,22,04,35,1.70
2015,02,22,04,36,1.70
2015,02,22,04,37,1.70
2015,02,22,04,38,1.70
2015,02,22,04,39,1.70
2015,02,22,04,40,1.70
2015,02,22,04,41,1.70
2015,02,22,04,42,1.70
2015,02,22,04,43,1.70
2015,02,22,04,44,1.70
2015,02,22,04,45,1.70
2015,02,22,04,46,1.70
2015,02,22,04,47,1.70
2015,02,22,04,48,1.70
2015,02,22,04,49,1.70
2015,02,22,04,50,1.70
2015,02,22,04,51,1.70
2015,02,22,04,52,1.70
2015,02,22,04,53,1.70
2015,02,22,04,54,1.70
2015,02,22,04,55,1.70
2015,02,22,04,56,1.70
2015,02,22,04,57,1.70
2015,02,22,04,58,1.70
2015,02,22,04,59,1.70
2015,02,22,05,00,1.70
2015,02,22,05,01,1.70
2015,02,22,05,02,1.70
2015,02,22,05,03,1.70
2015,02,22,05,04,1.70
2015,02,22,05,05,1.60
2015,02,22,05,06,1.60
2015,02,22,05,07,1.60
2015,02,22,05,08,1.60
2015,02,22,05,09,1.60
2015,02,22,05,10,1.60
2015,02,22,05,11,1.60
2015,02,22,05,12,1.60
2015,02,22,05,13,1.60
2015,02,22,05,14,1.60
2015,02,22,05,15,1.60
2015,02,22,05,16,1.50
2015,02,22,05,17,1.50
2015,02,22,05,18,1.50
2015,02,22,05,19,1.50
2015,02,22,05,20,1.50
2015,02,22,05,21,1.50
2015,02,22,05,22,1.50
2015,02,22,05,23,1.50
2015,02,22,05,24,1.50
2015,02,22,05,25,1.50
2015,02,22,05,26,1.50
2015,02,22,05,27,1.50
2015,02,22,05,28,1.50
2015,02,22,05,29,1.50
2015,02,22,05,30,1.60
2015,02,22,05,31,1.60
2015,02,22,05,32,1.60
2015,02,22,05,33,1.60
2015,02,22,05,34,1.60
2015,02,22,05,35,1.60
2015,02,22,05,36,1.60
2015,02,22,05,37,1.50
2015,02,22,05,38,1.50
2015,02,22,05,39,1.50
2015,02,22,05,40,1.50
2015,02,22,05,41,1.50
2015,02,22,05,42,1.40
2015,02,22,05,43,1.40
2015,02,22,05,44,1.40
2015,02,22,05,45,1.40
2015,02,22,05,46,1.40
2015,02,22,05,47,1.40
2015,02,22,05,48,1.40
2015,02,22,05,49,1.40
2015,02,22,05,50,1.40
2015,02,22,05,51,1.40
2015,02,22,05,52,1.40
2015,02,22,05,53,1.40
2015,02,22,05,54,1.40
2015,02,22,05,55,1.40
2015,02,22,05,56,1.40
2015,02,22,05,57,1.40
2015,02,22,05,58,1.40
2015,02,22,05,59,1.40
2015,02,22,06,00,1.40
2015,02,22,06,01,1.40
2015,02,22,06,02,1.40
2015,02,22,06,03,1.40
2015,02,22,06,04,1.40
2015,02,22,06,05,1.40
2015,02,22,06,06,1.40
2015,02,22,06,07,1.40
2015,02,22,06,08,1.50
2015,02,22,06,09,1.50
2015,02,22,06,10,1.50
2015,02,22,06,11,1.50
2015,02,22,06,12,1.50
2015,02,22,06,13,1.50
2015,02,22,06,14,1.50
2015,02,22,06,15,1.50
2015,02,22,06,16,1.40
2015,02,22,06,17,1.40
2015,02,22,06,18,1.40
2015,02,22,06,19,1.30
2015,02,22,06,20,1.30
2015,02,22,06,21,1.30
2015,02,22,06,22,1.30
2015,02,22,06,23,1.30
2015,02,22,06,24,1.30
2015,02,22,06,25,1.30
2015,02,22,06,26,1.30
2015,02,22,06,27,1.30
2015,02,22,06,28,1.30
2015,02,22,06,29,1.30
2015,02,22,06,30,1.30
2015,02,22,06,31,1.30
2015,02,22,06,32,1.30
2015,02,22,06,33,1.30
2015,02,22,06,34,1.30
2015,02,22,06,35,1.30
2015,02,22,06,36,1.30
2015,02,22,06,37,1.30
2015,02,22,06,38,1.30
2015,02,22,06,39,1.30
2015,02,22,06,40,1.30
2015,02,22,06,41,1.30
2015,02,22,06,42,1.30
2015,02,22,06,43,1.30
2015,02,22,06,44,1.30
2015,02,22,06,45,1.30
2015,02,22,06,46,1.30
2015,02,22,06,47,1.30
2015,02,22,06,48,1.30
2015,02,22,06,49,1.30
2015,02,22,06,50,1.30
2015,02,22,06,51,1.30
2015,02,22,06,52,1.30
2015,02,22,06,53,1.30
2015,02,22,06,54,1.30
2015,02,22,06,55,1.30
2015,02,22,06,56,1.30
2015,02,22,06,57,1.30
2015,02,22,06,58,1.30
2015,02,22,06,59,1.30
2015,02,22,07,00,1.30
2015,02,22,07,01,1.30
2015,02,22,07,02,1.30
2015,02,22,07,03,1.30
2015,02,22,07,04,1.30
2015,02,22,07,05,1.30
2015,02,22,07,06,1.30
2015,02,22,07,07,1.30
2015,02,22,07,08,1.30
2015,02,22,07,09,1.30
2015,02,22,07,10,1.30
2015,02,22,07,11,1.30
2015,02,22,07,12,1.30
2015,02,22,07,13,1.30
2015,02,22,07,14,1.30
2015,02,22,07,15,1.30
2015,02,22,07,16,1.30
2015,02,22,07,17,1.30
2015,02,22,07,18,1.30
2015,02,22,07,19,1.30
2015,02,22,07,20,1.30
2015,02,22,07,21,1.30
2015,02,22,07,22,1.30
2015,02,22,07,23,1.30
2015,02,22,07,24,1.30
2015,02,22,07,25,1.30
2015,02,22,07,26,1.30
2015,02,22,07,27,1.30
2015,02,22,07,28,1.30
2015,02,22,07,29,1.30
2015,02,22,07,30,1.30
2015,02,22,07,31,1.30
2015,02,22,07,32,1.30
2015,02,22,07,33,1.30
2015,02,22,07,34,1.30
2015,02,22,07,35,1.30
2015,02,22,07,36,1.30
2015,02,22,07,37,1.30
2015,02,22,07,38,1.30
2015,02,22,07,39,1.30
2015,02,22,07,40,1.30
2015,02,22,07,41,1.30
2015,02,22,07,42,1.30
2015,02,22,07,43,1.30
2015,02,22,07,44,1.30
2015,02,22,07,45,1.30
2015,02,22,07,46,1.30
2015,02,22,07,47,1.30
2015,02,22,07,48,1.30
2015,02,22,07,49,1.30
2015,02,22,07,50,1.30
2015,02,22,07,51,1.30
2015,02,22,07,52,1.30
2015,02,22,07,53,1.30
2015,02,22,07,54,1.30
2015,02,22,07,55,1.30
2015,02,22,07,56,1.30
2015,02,22,07,57,1.30
2015,02,22,07,58,1.30
2015,02,22,07,59,1.30
2015,02,22,08,00,1.30
2015,02,22,08,01,1.30
2015,02,22,08,02,1.30
2015,02,22,08,03,1.30
2015,02,22,08,04,1.30
2015,02,22,08,05,1.30
2015,02,22,08,06,1.30
2015,02,22,08,07,1.30
2015,02,22,08,08,1.30
2015,02,22,08,09,1.30
2015,02,22,08,10,1.30
2015,02,22,08,11,1.30
2015,02,22,08,12,1.30
2015,02,22,08,13,1.40
2015,02,22,08,14,1.40
2015,02,22,08,15,1.50
2015,02,22,08,16,1.60
2015,02,22,08,17,1.60
2015,02,22,08,18,1.70
2015,02,22,08,19,1.70
2015,02,22,08,20,1.80
2015,02,22,08,21,1.80
2015,02,22,08,22,1.80
2015,02,22,08,23,1.90
2015,02,22,08,24,2.00
2015,02,22,08,25,2.10
2015,02,22,08,26,2.20
2015,02,22,08,27,2.30
2015,02,22,08,28,2.30
2015,02,22,08,29,2.50
2015,02,22,08,30,2.60
2015,02,22,08,31,2.70
2015,02,22,08,32,2.80
2015,02,22,08,33,2.80
2015,02,22,08,34,2.90
2015,02,22,08,35,3.00
2015,02,22,08,36,3.10
2015,02,22,08,37,3.10
2015,02,22,08,38,3.20
2015,02,22,08,39,3.30
2015,02,22,08,40,3.40
2015,02,22,08,41,3.50
2015,02,22,08,42,3.60
2015,02,22,08,43,3.70
2015,02,22,08,44,3.80
2015,02,22,08,45,3.90
2015,02,22,08,46,4.00
2015,02,22,08,47,4.10
2015,02,22,08,48,4.20
2015,02,22,08,49,4.20
2015,02,22,08,50,4.30
2015,02,22,08,51,4.30
2015,02,22,08,52,4.40
2015,02,22,08,53,4.50
2015,02,22,08,54,4.60
2015,02,22,08,55,4.70
2015,02,22,08,56,4.70
2015,02,22,08,57,4.80
2015,02,22,08,58,4.90
2015,02,22,08,59,4.90
2015,02,22,09,00,5.00
2015,02,22,09,01,5.10
2015,02,22,09,02,5.10
2015,02,22,09,03,5.10
2015,02,22,09,04,5.10
2015,02,22,09,05,5.20
2015,02,22,09,06,5.20
2015,02,22,09,07,5.20
2015,02,22,09,08,5.20
2015,02,22,09,09,5.20
2015,02,22,09,10,5.20
2015,02,22,09,11,5.20
2015,02,22,09,12,5.20
2015,02,22,09,13,5.10
2015,02,22,09,14,5.10
2015,02,22,09,15,5.10
2015,02,22,09,16,5.10
2015,02,22,09,17,5.10
2015,02,22,09,18,5.10
2015,02,22,09,19,5.00
2015,02,22,09,20,5.00
2015,02,22,09,21,5.00
2015,02,22,09,22,4.90
2015,02,22,09,23,4.90
2015,02,22,09,24,4.80
2015,02,22,09,25,4.80
2015,02,22,09,26,4.80
2015,02,22,09,27,4.80
2015,02,22,09,28,4.80
2015,02,22,09,29,4.80
2015,02,22,09,30,4.80
2015,02,22,09,31,4.80
2015,02,22,09,32,4.90
2015,02,22,09,33,4.90
2015,02,22,09,34,5.00
2015,02,22,09,35,5.00
2015,02,22,09,36,5.10
2015,02,22,09,37,5.20
2015,02,22,09,38,5.20
2015,02,22,09,39,5.40
2015,02,22,09,40,5.50
2015,02,22,09,41,5.60
2015,02,22,09,42,5.60
2015,02,22,09,43,5.70
2015,02,22,09,44,5.80
2015,02,22,09,45,5.90
2015,02,22,09,46,6.00
2015,02,22,09,47,6.20
2015,02,22,09,48,6.30
2015,02,22,09,49,6.30
2015,02,22,09,50,6.30
2015,02,22,09,51,6.30
2015,02,22,09,52,6.30
2015,02,22,09,53,6.30
2015,02,22,09,54,6.40
2015,02,22,09,55,6.60
2015,02,22,09,56,6.70
2015,02,22,09,57,6.70
2015,02,22,09,58,6.70
2015,02,22,09,59,6.80
2015,02,22,10,00,6.80
2015,02,22,10,01,6.80
2015,02,22,10,02,6.80
2015,02,22,10,03,6.80
2015,02,22,10,04,6.80
2015,02,22,10,05,6.90
2015,02,22,10,06,7.00
2015,02,22,10,07,7.10
2015,02,22,10,08,7.20
2015,02,22,10,09,7.30
2015,02,22,10,10,7.50
2015,02,22,10,11,7.60
2015,02,22,10,12,7.70
2015,02,22,10,13,7.80
2015,02,22,10,14,7.80
2015,02,22,10,15,7.70
2015,02,22,10,16,7.70
2015,02,22,10,17,7.60
2015,02,22,10,18,7.60
2015,02,22,10,19,7.60
2015,02,22,10,20,7.50
2015,02,22,10,21,7.50
2015,02,22,10,22,7.50
2015,02,22,10,23,7.40
2015,02,22,10,24,7.40
2015,02,22,10,25,7.30
2015,02,22,10,26,7.20
2015,02,22,10,27,7.20
2015,02,22,10,28,7.20
2015,02,22,10,29,7.20
2015,02,22,10,30,7.20
2015,02,22,10,31,7.20
2015,02,22,10,32,7.30
2015,02,22,10,33,7.30
2015,02,22,10,34,7.30
2015,02,22,10,35,7.20
2015,02,22,10,36,7.20
2015,02,22,10,37,7.20
2015,02,22,10,38,7.20
2015,02,22,10,39,7.20
2015,02,22,10,40,7.30
2015,02,22,10,41,7.30
2015,02,22,10,42,7.20
2015,02,22,10,43,7.20
2015,02,22,10,44,7.30
2015,02,22,10,45,7.30
2015,02,22,10,46,7.30
2015,02,22,10,47,7.30
2015,02,22,10,48,7.30
2015,02,22,10,49,7.40
2015,02,22,10,50,7.40
2015,02,22,10,51,7.50
2015,02,22,10,52,7.50
2015,02,22,10,53,7.60
2015,02,22,10,54,7.60
2015,02,22,10,55,7.60
2015,02,22,10,56,7.70
2015,02,22,10,57,7.70
2015,02,22,10,58,7.70
2015,02,22,10,59,7.80
2015,02,22,11,00,7.80
2015,02,22,11,01,7.80
2015,02,22,11,02,7.80
2015,02,22,11,03,7.80
2015,02,22,11,04,7.80
2015,02,22,11,05,7.90
2015,02,22,11,06,7.90
2015,02,22,11,07,7.90
2015,02,22,11,08,7.90
2015,02,22,11,09,7.90
2015,02,22,11,10,7.90
2015,02,22,11,11,8.00
2015,02,22,11,12,8.00
2015,02,22,11,13,8.00
2015,02,22,11,14,8.10
2015,02,22,11,15,8.10
2015,02,22,11,16,8.10
2015,02,22,11,17,8.10
2015,02,22,11,18,8.20
2015,02,22,11,19,8.20
2015,02,22,11,20,8.20
2015,02,22,11,21,8.20
2015,02,22,11,22,8.20
2015,02,22,11,23,8.20
2015,02,22,11,24,8.20
2015,02,22,11,25,8.20
2015,02,22,11,26,8.20
2015,02,22,11,27,8.20
2015,02,22,11,28,8.20
2015,02,22,11,29,8.20
2015,02,22,11,30,8.30
2015,02,22,11,31,8.30
2015,02,22,11,32,8.30
2015,02,22,11,33,8.30
2015,02,22,11,34,8.30
2015,02,22,11,35,8.30
2015,02,22,11,36,8.40
2015,02,22,11,37,8.40
2015,02,22,11,38,8.50
2015,02,22,11,39,8.50
2015,02,22,11,40,8.50
2015,02,22,11,41,8.60
2015,02,22,11,42,8.60
2015,02,22,11,43,8.60
2015,02,22,11,44,8.60
2015,02,22,11,45,8.70
2015,02,22,11,46,8.70
2015,02,22,11,47,8.70
2015,02,22,11,48,8.70
2015,02,22,11,49,8.70
2015,02,22,11,50,8.80
2015,02,22,11,51,8.80
2015,02,22,11,52,8.80
2015,02,22,11,53,8.80
2015,02,22,11,54,8.80
2015,02,22,11,55,8.90
2015,02,22,11,56,8.90
2015,02,22,11,57,8.90
2015,02,22,11,58,8.90
2015,02,22,11,59,8.90
2015,02,22,12,00,8.90
2015,02,22,12,01,8.90
2015,02,22,12,02,8.90
2015,02,22,12,03,9.00
2015,02,22,12,04,9.00
2015,02,22,12,05,9.00
2015,02,22,12,06,9.00
2015,02,22,12,07,9.00
2015,02,22,12,08,9.00
2015,02,22,12,09,9.00
2015,02,22,12,10,9.00
2015,02,22,12,11,9.00
2015,02,22,12,12,8.90
2015,02,22,12,13,8.90
2015,02,22,12,14,8.90
2015,02,22,12,15,8.90
2015,02,22,12,16,8.90
2015,02,22,12,17,8.90
2015,02,22,12,18,9.00
2015,02,22,12,19,9.00
2015,02,22,12,20,9.00
2015,02,22,12,21,9.00
2015,02,22,12,22,9.00
2015,02,22,12,23,9.00
2015,02,22,12,24,8.90
2015,02,22,12,25,8.90
2015,02,22,12,26,9.00
2015,02,22,12,27,9.00
2015,02,22,12,28,9.00
2015,02,22,12,29,9.00
2015,02,22,12,30,9.00
2015,02,22,12,31,9.10
2015,02,22,12,32,9.10
2015,02,22,12,33,9.10
2015,02,22,12,34,9.10
2015,02,22,12,35,9.10
2015,02,22,12,36,9.20
2015,02,22,12,37,9.20
2015,02,22,12,38,9.20
2015,02,22,12,39,9.20
2015,02,22,12,40,9.20
2015,02,22,12,41,9.20
2015,02,22,12,42,9.20
2015,02,22,12,43,9.20
2015,02,22,12,44,9.20
2015,02,22,12,45,9.20
2015,02,22,12,46,9.20
2015,02,22,12,47,9.20
2015,02,22,12,48,9.20
2015,02,22,12,49,9.30
2015,02,22,12,50,9.30
2015,02,22,12,51,9.30
2015,02,22,12,52,9.20
2015,02,22,12,53,9.20
2015,02,22,12,54,9.20
2015,02,22,12,55,9.20
2015,02,22,12,56,9.20
2015,02,22,12,57,9.20
2015,02,22,12,58,9.20
2015,02,22,12,59,9.20
2015,02,22,13,00,9.30
2015,02,22,13,01,9.30
2015,02,22,13,02,9.30
2015,02,22,13,03,9.30
2015,02,22,13,04,9.30
2015,02,22,13,05,9.30
2015,02,22,13,06,9.30
2015,02,22,13,07,9.30
2015,02,22,13,08,9.30
2015,02,22,13,09,9.30
2015,02,22,13,10,9.30
2015,02,22,13,11,9.30
2015,02,22,13,12,9.30
2015,02,22,13,13,9.30
2015,02,22,13,14,9.30
2015,02,22,13,15,9.30
2015,02,22,13,16,9.30
2015,02,22,13,17,9.30
2015,02,22,13,18,9.30
2015,02,22,13,19,9.30
2015,02,22,13,20,9.30
2015,02,22,13,21,9.40
2015,02,22,13,22,9.40
2015,02,22,13,23,9.40
2015,02,22,13,24,9.40
2015,02,22,13,25,9.50
2015,02,22,13,26,9.50
2015,02,22,13,27,9.50
2015,02,22,13,28,9.50
2015,02,22,13,29,9.50
2015,02,22,13,30,9.40
2015,02,22,13,31,9.40
2015,02,22,13,32,9.40
2015,02,22,13,33,9.40
2015,02,22,13,34,9.40
2015,02,22,13,35,9.40
2015,02,22,13,36,9.40
2015,02,22,13,37,9.40
2015,02,22,13,38,9.50
2015,02,22,13,39,9.50
2015,02,22,13,40,9.50
2015,02,22,13,41,9.60
2015,02,22,13,42,9.60
2015,02,22,13,43,9.60
2015,02,22,13,44,9.60
2015,02,22,13,45,9.60
2015,02,22,13,46,9.60
2015,02,22,13,47,9.60
2015,02,22,13,48,9.60
2015,02,22,13,49,9.70
2015,02,22,13,50,9.70
2015,02,22,13,51,9.70
2015,02,22,13,52,9.60
2015,02,22,13,53,9.60
2015,02,22,13,54,9.60
2015,02,22,13,55,9.60
2015,02,22,13,56,9.70
2015,02,22,13,57,9.70
2015,02,22,13,58,9.70
2015,02,22,13,59,9.70
2015,02,22,14,00,9.60
2015,02,22,14,01,9.60
2015,02,22,14,02,9.60
2015,02,22,14,03,9.60
2015,02,22,14,04,9.70
2015,02,22,14,05,9.70
2015,02,22,14,06,9.70
2015,02,22,14,07,9.70
2015,02,22,14,08,9.70
2015,02,22,14,09,9.80
2015,02,22,14,10,9.80
2015,02,22,14,11,9.90
2015,02,22,14,12,9.90
2015,02,22,14,13,9.90
2015,02,22,14,14,9.90
2015,02,22,14,15,10.00
2015,02,22,14,16,10.00
2015,02,22,14,17,10.00
2015,02,22,14,18,10.00
2015,02,22,14,19,10.00
2015,02,22,14,20,10.00
2015,02,22,14,21,10.00
2015,02,22,14,22,9.90
2015,02,22,14,23,9.90
2015,02,22,14,24,9.80
2015,02,22,14,25,9.80
2015,02,22,14,26,9.80
2015,02,22,14,27,9.80
2015,02,22,14,28,9.90
2015,02,22,14,29,9.90
2015,02,22,14,30,9.90
2015,02,22,14,31,9.90
2015,02,22,14,32,9.90
2015,02,22,14,33,9.90
2015,02,22,14,34,9.90
2015,02,22,14,35,9.90
2015,02,22,14,36,9.90
2015,02,22,14,37,9.90
2015,02,22,14,38,9.90
2015,02,22,14,39,9.80
2015,02,22,14,40,9.80
2015,02,22,14,41,9.80
2015,02,22,14,42,9.80
2015,02,22,14,43,9.80
2015,02,22,14,44,9.80
2015,02,22,14,45,9.80
2015,02,22,14,46,9.80
2015,02,22,14,47,9.80
2015,02,22,14,48,9.80
2015,02,22,14,49,9.80
2015,02,22,14,50,9.80
2015,02,22,14,51,9.80
2015,02,22,14,52,9.80
2015,02,22,14,53,9.80
2015,02,22,14,54,9.80
2015,02,22,14,55,9.80
2015,02,22,14,56,9.90
2015,02,22,14,57,9.90
2015,02,22,14,58,9.90
2015,02,22,14,59,9.90
2015,02,22,15,00,9.80
2015,02,22,15,01,9.80
2015,02,22,15,02,9.80
2015,02,22,15,03,9.80
2015,02,22,15,04,9.80
2015,02,22,15,05,9.80
2015,02,22,15,06,9.80
2015,02,22,15,07,9.80
2015,02,22,15,08,9.80
2015,02,22,15,09,9.80
2015,02,22,15,10,9.80
2015,02,22,15,11,9.80
2015,02,22,15,12,9.80
2015,02,22,15,13,9.80
2015,02,22,15,14,9.80
2015,02,22,15,15,9.90
2015,02,22,15,16,9.90
2015,02,22,15,17,9.90
2015,02,22,15,18,9.90
2015,02,22,15,19,9.90
2015,02,22,15,20,9.90
2015,02,22,15,21,9.90
2015,02,22,15,22,9.90
2015,02,22,15,23,9.90
2015,02,22,15,24,9.90
2015,02,22,15,25,9.90
2015,02,22,15,26,9.80
2015,02,22,15,27,9.80
2015,02,22,15,28,9.80
2015,02,22,15,29,9.80
2015,02,22,15,30,9.80
2015,02,22,15,31,9.80
2015,02,22,15,32,9.80
2015,02,22,15,33,9.80
2015,02,22,15,34,9.80
2015,02,22,15,35,9.70
2015,02,22,15,36,9.70
2015,02,22,15,37,9.70
2015,02,22,15,38,9.70
2015,02,22,15,39,9.70
2015,02,22,15,40,9.70
2015,02,22,15,41,9.80
2015,02,22,15,42,9.80
2015,02,22,15,43,9.80
2015,02,22,15,44,9.80
2015,02,22,15,45,9.80
2015,02,22,15,46,9.80
2015,02,22,15,47,9.90
2015,02,22,15,48,9.90
2015,02,22,15,49,9.90
2015,02,22,15,50,9.90
2015,02,22,15,51,9.90
2015,02,22,15,52,9.90
2015,02,22,15,53,9.90
2015,02,22,15,54,9.90
2015,02,22,15,55,9.90
2015,02,22,15,56,9.90
2015,02,22,15,57,9.90
2015,02,22,15,58,9.90
2015,02,22,15,59,9.90
2015,02,22,16,00,9.90
2015,02,22,16,01,9.90
2015,02,22,16,02,9.80
2015,02,22,16,03,9.80
2015,02,22,16,04,9.80
2015,02,22,16,05,9.80
2015,02,22,16,06,9.80
2015,02,22,16,07,9.80
2015,02,22,16,08,9.80
2015,02,22,16,09,9.80
2015,02,22,16,10,9.80
2015,02,22,16,11,9.80
2015,02,22,16,12,9.80
2015,02,22,16,13,9.80
2015,02,22,16,14,9.80
2015,02,22,16,15,9.80
2015,02,22,16,16,9.80
2015,02,22,16,17,9.80
2015,02,22,16,18,9.80
2015,02,22,16,19,9.80
2015,02,22,16,20,9.80
2015,02,22,16,21,9.80
2015,02,22,16,22,9.80
2015,02,22,16,23,9.80
2015,02,22,16,24,9.80
2015,02,22,16,25,9.80
2015,02,22,16,26,9.80
2015,02,22,16,27,9.80
2015,02,22,16,28,9.80
2015,02,22,16,29,9.80
2015,02,22,16,30,9.80
2015,02,22,16,31,9.80
2015,02,22,16,32,9.80
2015,02,22,16,33,9.70
2015,02,22,16,34,9.70
2015,02,22,16,35,9.70
2015,02,22,16,36,9.60
2015,02,22,16,37,9.60
2015,02,22,16,38,9.60
2015,02,22,16,39,9.50
2015,02,22,16,40,9.50
2015,02,22,16,41,9.40
2015,02,22,16,42,9.40
2015,02,22,16,43,9.40
2015,02,22,16,44,9.30
2015,02,22,16,45,9.30
2015,02,22,16,46,9.30
2015,02,22,16,47,9.20
2015,02,22,16,48,9.20
2015,02,22,16,49,9.10
2015,02,22,16,50,9.10
2015,02,22,16,51,9.00
2015,02,22,16,52,9.00
2015,02,22,16,53,8.90
2015,02,22,16,54,8.90
2015,02,22,16,55,8.80
2015,02,22,16,56,8.80
2015,02,22,16,57,8.80
2015,02,22,16,58,8.70
2015,02,22,16,59,8.70
2015,02,22,17,00,8.60
2015,02,22,17,01,8.60
2015,02,22,17,02,8.60
2015,02,22,17,03,8.60
2015,02,22,17,04,8.50
2015,02,22,17,05,8.50
2015,02,22,17,06,8.40
2015,02,22,17,07,8.40
2015,02,22,17,08,8.40
2015,02,22,17,09,8.30
2015,02,22,17,10,8.30
2015,02,22,17,11,8.30
2015,02,22,17,12,8.20
2015,02,22,17,13,8.20
2015,02,22,17,14,8.20
2015,02,22,17,15,8.10
2015,02,22,17,16,8.10
2015,02,22,17,17,8.10
2015,02,22,17,18,8.00
2015,02,22,17,19,8.00
2015,02,22,17,20,7.90
2015,02,22,17,21,7.90
2015,02,22,17,22,7.90
2015,02,22,17,23,7.80
2015,02,22,17,24,7.80
2015,02,22,17,25,7.80
2015,02,22,17,26,7.80
2015,02,22,17,27,7.80
2015,02,22,17,28,7.70
2015,02,22,17,29,7.70
2015,02,22,17,30,7.70
2015,02,22,17,31,7.60
2015,02,22,17,32,7.60
2015,02,22,17,33,7.50
2015,02,22,17,34,7.50
2015,02,22,17,35,7.50
2015,02,22,17,36,7.40
2015,02,22,17,37,7.40
2015,02,22,17,38,7.40
2015,02,22,17,39,7.30
2015,02,22,17,40,7.30
2015,02,22,17,41,7.30
2015,02,22,17,42,7.20
2015,02,22,17,43,7.20
2015,02,22,17,44,7.20
2015,02,22,17,45,7.20
2015,02,22,17,46,7.20
2015,02,22,17,47,7.20
2015,02,22,17,48,7.10
2015,02,22,17,49,7.10
2015,02,22,17,50,7.10
2015,02,22,17,51,7.10
2015,02,22,17,52,7.00
2015,02,22,17,53,7.00
2015,02,22,17,54,6.90
2015,02,22,17,55,6.80
2015,02,22,17,56,6.80
2015,02,22,17,57,6.70
2015,02,22,17,58,6.70
2015,02,22,17,59,6.60
2015,02,22,18,00,6.60
2015,02,22,18,01,6.60
2015,02,22,18,02,6.60
2015,02,22,18,03,6.50
2015,02,22,18,04,6.50
2015,02,22,18,05,6.40
2015,02,22,18,06,6.40